Temperature
20 21 21 21 21 21 20 18 18 19 19 20 19 18 20 21 20 20 19 19 19 18 18 17 17 16 16 16 15 15 14 14 14 13 13 13 13 13 13 13 13 12 12 12
21 22 22 22 21 20 20 20 19 20 20 20 20 21 20 20 20 20 20 19 19 19 18 18 17 17 16 16 15 15 15 14 14 14 13 13 13 13 13 13 13 13 12 12
19 20 21 21 21 20 20 20 20 20 19 20 19 19 20 21 21 20 20 20 19 19 18 18 17 17 16 16 16 15 15 15 14 14 14 14 13 13 13 13 13 13 13 12
18 20 21 20 20 21 21 21 20 20 20 19 20 22 22 22 21 21 20 20 19 19 19 18 17 17 17 16 16 15 15 15 14 14 14 14 14 13 13 13 13 13 13 13
17 18 19 20 22 21 21 21 20 20 20 21 21 20 20 21 22 21 21 20 20 19 19 18 18 17 17 16 16 16 15 15 15 14 14 14 14 14 13 13 13 13 13 13
16 19 19 20 21 23 22 21 21 20 20 20 20 17 18 21 21 21 20 20 19 19 18 18 17 17 17 16 16 16 15 15 15 15 14 14 14 14 14 14 13 13 13 13
16 17 18 19 22 22 20 20 22 22 22 21 20 20 22 21 21 21 20 20 19 19 18 18 17 17 17 16 16 16 15 15 15 15 15 14 14 14 14 14 13 13 13 13
15 17 18 20 22 20 20 22 23 23 23 23 23 22 22 21 21 20 20 19 19 18 18 17 17 17 17 16 16 16 16 15 15 15 15 14 14 14 14 14 14 14 13 13
16 18 20 22 23 24 24 23 23 23 23 23 22 22 21 21 20 20 20 19 18 18 18 17 17 17 17 16 16 16 16 15 15 15 15 15 14 14 14 14 14 14 14 13
17 17 20 22 23 24 24 24 24 23 23 23 22 22 21 20 20 20 19 19 18 18 17 17 17 16 16 16 16 16 15 15 15 15 15 15 14 14 14 14 14 14 14 14
17 18 20 21 22 23 23 23 23 23 22 22 22 21 21 20 20 19 19 18 18 17 17 17 16 16 16 16 16 15 15 15 15 15 15 14 14 14 14 14 14 14 14 13
17 19 18 21 23 23 23 22 22 22 22 21 21 21 20 20 19 19 18 18 18 17 17 16 16 16 16 15 15 15 15 15 15 14 14 14 14 14 14 14 14 14 13 13
22 23 22 23 23 22 22 22 22 22 21 21 21 20 20 19 19 18 18 18 17 17 16 16 16 15 15 15 15 15 15 14 14 14 14 14 13 13 14 14 14 14 13 13
22 22 21 22 22 22 22 21 21 21 20 20 20 19 19 19 18 18 17 17 16 16 16 15 15 15 15 14 14 14 14 13 13 13 13 13 13 13 13 13 13 13 13 13
21 21 22 22 21 21 21 20 20 20 19 19 19 18 18 18 17 17 16 16 16 15 15 15 14 14 14 14 13 13 13 13 13 12 12 12 12 12 12 12 12 12 12 13
20 21 21 21 21 20 20 19 19 19 18 18 18 17 17 17 17 16 15 15 15 15 14 14 14 13 13 13 13 13 12 12 12 12 11 11 11 11 11 11 11 11 11 11
19 19 19 19 19 19 19 19 19 18 18 17 17 17 16 16 15 15 14 14 14 14 13 13 13 12 12 12 12 12 12 11 11 11 11 10 10 10 10 10 10 10 10 10
19 19 20 20 19 19 19 18 18 18 17 17 16 16 15 15 15 14 13 13 13 12 12 12 12 12 11 11 11 11 11 10 10 10 9 9 9 9 9 9 9 9 9 9
18 18 18 18 18 18 18 18 17 17 16 16 15 15 14 14 14 13 12 12 12 12 11 11 11 11 10 10 10 10 9 9 9 8 8 8 8 8 8 8 8 8 8 8
17 17 17 17 17 17 17 17 16 16 15 15 14 14 13 13 12 12 11 11 11 11 10 10 10 10 9 9 9 9 8 8 8 7 7 7 7 7 7 6 6 6 6 6
15 15 16 16 16 16 16 15 15 15 14 14 13 13 13 12 11 11 11 10 10 9 9 9 9 9 8 8 8 8 7 7 7 7 6 6 6 6 6 6 5 5 5 5
14 14 14 14 14 14 14 14 14 13 13 12 12 12 11 11 10 10 10 10 9 9 8 8 8 8 7 7 7 7 7 6 6 6 6 5 5 5 5 5 5 4 4 4
12 13 13 13 13 13 12 12 12 12 12 12 11 11 11 10 10 10 9 9 8 8 8 7 7 7 7 6 6 6 6 6 5 5 5 5 5 5 4 4 4 4 4 4
11 11 12 12 12 12 11 11 11 11 11 11 10 10 10 9 9 9 8 8 8 7 7 7 6 6 6 6 6 6 5 5 5 5 4 4 4 4 4 4 3 3 3 3
10 11 11 11 11 11 10 10 10 10 9 9 9 9 9 9 8 8 8 7 7 7 6 6 6 6 6 5 5 5 5 5 4 4 4 4 4 4 3 3 3 3 3 3
10 10 10 10 10 10 10 9 9 9 9 8 8 8 8 8 8 7 7 7 6 6 6 6 5 5 5 5 5 5 4 4 4 4 4 4 3 3 3 3 3 2 2 2
9 9 9 9 9 9 9 9 9 8 8 8 8 7 7 7 7 7 6 6 6 6 5 5 5 5 5 5 4 4 4 4 4 4 3 3 3 3 2 2 2 2 2 2
Wind_Speed
6 6 5 6 8 8 7 9 8 7 8 9 9 10 9 8 8 7 7 8 8 8 7 6 6 5 5 5 4 4 3 2 2 2 2 2 3 3 3 3 4 4 4 5
3 4 3 5 8 9 9 7 7 6 7 8 6 6 6 8 9 9 8 9 8 8 7 7 7 6 5 5 5 4 4 3 2 1 1 2 2 3 3 4 4 4 4 4
4 5 3 5 9 10 8 7 9 9 10 6 5 8 10 10 9 9 8 8 8 8 8 8 7 7 6 6 4 4 4 3 3 2 1 2 2 2 3 3 3 4 4 4
1 2 5 9 7 8 9 8 8 8 8 9 10 8 7 8 10 9 8 7 7 7 7 7 6 6 6 5 5 4 3 3 3 3 2 2 2 2 3 2 2 3 3 4
3 3 7 9 6 6 7 6 7 9 8 7 6 5 1 4 8 9 8 7 7 7 6 6 6 6 6 5 4 4 4 4 4 4 3 3 3 3 3 2 3 3 3 3
4 3 6 9 7 3 5 3 5 8 9 9 9 4 5 5 6 7 6 6 5 5 5 6 5 6 6 5 4 5 5 6 5 4 4 4 4 4 3 2 3 3 3 3
5 5 8 9 4 4 4 8 5 7 9 10 9 8 6 7 7 7 7 6 6 7 6 5 5 6 6 5 5 6 5 5 4 4 4 5 4 3 3 3 3 3 4 4
6 4 8 6 5 7 9 4 4 6 8 9 7 6 7 9 8 8 6 6 6 6 5 3 5 6 5 4 5 4 4 4 4 5 4 3 4 4 3 2 3 4 4 5
9 9 8 6 8 6 6 6 6 7 7 10 9 8 8 7 8 7 7 6 5 6 5 2 3 5 4 3 3 3 2 3 4 4 4 4 4 4 3 2 2 3 3 4
4 8 6 5 3 4 6 7 7 7 9 10 9 9 9 8 7 6 5 5 5 6 5 3 2 2 2 2 2 2 2 3 3 3 4 4 3 4 3 3 3 4 4 5
4 6 3 5 5 6 5 5 6 6 7 10 11 9 9 8 7 6 5 5 6 6 5 4 2 1 0 1 2 2 2 2 3 3 4 4 4 4 5 5 5 5 5 5
7 8 7 9 8 7 7 7 8 7 6 7 9 10 9 8 7 7 6 6 6 6 5 3 2 1 1 0 2 2 1 2 2 3 3 3 4 5 6 7 9 10 9 7
9 8 8 8 7 8 8 9 8 8 9 8 7 9 10 7 6 7 7 7 7 6 5 4 4 3 3 2 1 1 1 2 2 2 2 2 2 3 5 6 6 7 8 8
6 3 4 5 7 8 7 7 7 6 7 8 8 8 9 8 7 8 7 7 7 7 6 5 5 4 3 3 2 2 1 2 2 2 2 2 2 3 3 3 5 5 6 8
8 7 7 6 5 6 6 7 7 7 7 7 7 9 10 10 9 8 7 8 8 8 6 6 6 4 4 4 4 3 2 2 2 2 2 2 2 2 2 3 3 4 5 7
7 4 4 5 7 7 7 8 9 8 8 7 8 9 10 10 9 8 7 8 9 7 6 6 5 3 4 4 4 4 3 6 5 3 3 3 4 4 4 4 4 4 5 6
4 3 4 6 7 8 9 9 10 10 9 9 10 11 11 11 10 9 8 8 8 7 6 6 4 4 5 5 5 4 4 5 8 6 4 4 4 4 4 4 4 4 5 7
8 9 8 9 10 9 8 8 9 9 9 9 11 12 12 12 11 10 9 9 9 8 6 4 5 5 5 5 5 4 4 4 5 5 4 5 5 5 5 5 6 6 5 7
3 4 4 5 6 8 8 8 9 9 9 11 12 11 11 11 11 10 9 9 9 7 3 4 8 7 6 6 7 5 5 5 5 5 5 6 6 5 5 5 5 6 6 6
2 0 2 3 4 5 6 7 9 9 9 11 12 12 11 11 11 10 9 7 4 4 4 5 6 5 4 5 7 4 5 5 5 5 5 5 5 5 5 5 5 5 5 5
3 3 4 5 5 5 7 8 10 9 9 10 12 12 12 10 10 10 9 6 3 4 6 8 5 3 3 4 7 4 4 4 4 4 4 4 4 4 4 4 4 4 4 5
3 3 4 5 7 6 5 6 8 10 9 9 10 11 11 10 9 7 6 6 6 8 5 4 3 4 5 6 4 3 3 3 3 2 2 2 2 3 3 3 3 3 4 4
2 2 4 5 6 6 6 6 7 9 9 10 10 11 10 9 8 8 6 4 5 8 6 3 5 6 5 4 3 2 2 2 1 1 1 1 1 1 1 2 2 3 3 3
1 1 2 3 5 6 6 4 5 6 7 8 8 10 10 8 4 3 5 9 11 9 5 5 6 5 4 3 2 2 1 1 0 0 0 0 0 1 1 1 2 2 3 3
1 1 2 4 5 5 5 6 6 7 7 5 6 7 6 6 6 6 6 7 10 8 4 5 6 4 3 2 2 1 1 1 1 1 1 1 1 1 1 2 2 2 3 3
2 2 3 4 4 5 5 6 5 5 6 5 4 4 4 5 6 6 5 6 7 7 5 3 3 3 2 2 2 2 2 1 0 0 1 1 1 1 1 2 3 2 3 3
2 1 2 2 2 4 5 6 6 6 6 6 5 4 5 5 6 6 6 5 4 4 4 3 3 3 3 3 2 2 2 2 2 1 1 1 1 1 2 2 2 2 3 3
Wind_Direction
225 233 204 212 215 196 182 185 187 220 215 227 214 206 203 195 188 184 187 188 190 195 202 203 201 206 201 201 201 186 171 187 239 267 290 318 335 343 348 349 352 348 350 349
304 282 251 243 227 208 209 201 203 208 234 231 211 181 180 184 180 187 194 195 195 194 193 194 194 199 197 199 201 178 173 201 226 260 308 319 320 333 345 342 343 351 350 348
273 305 10 275 230 205 207 205 185 206 223 202 179 188 190 189 185 190 194 193 191 191 193 194 194 189 190 196 189 173 183 206 217 225 258 290 314 337 330 326 334 339 339 344
208 19 250 249 251 202 203 220 197 190 195 189 191 193 191 183 180 189 191 189 189 189 188 190 187 183 179 168 167 172 186 210 221 223 248 277 308 308 302 305 313 315 321 327
137 217 274 289 271 177 172 240 210 188 189 184 154 98 346 208 178 182 185 183 185 184 178 175 176 175 158 160 171 179 201 219 224 219 231 256 273 278 274 287 297 298 298 310
131 181 246 256 271 185 112 265 251 182 177 165 134 143 233 212 170 164 163 163 163 157 147 157 176 159 150 166 178 203 219 224 224 218 222 238 252 260 263 259 272 288 297 294
165 213 261 255 261 95 142 234 242 176 168 163 175 193 193 169 161 157 156 158 149 142 148 169 164 147 152 171 205 223 224 223 225 227 230 236 249 257 264 274 293 299 298 295
157 193 254 245 155 179 212 210 168 160 165 165 172 161 154 159 159 154 150 149 145 142 153 164 154 146 155 197 226 220 213 219 234 240 244 240 237 259 267 268 286 294 298 301
187 212 237 222 203 208 173 173 177 162 164 153 149 156 158 158 156 155 153 151 145 144 141 135 146 145 162 226 220 193 197 233 254 263 259 251 237 250 265 263 264 278 280 284
237 260 253 233 207 183 179 178 177 166 160 154 155 158 156 155 156 155 153 150 140 133 134 137 139 137 172 217 194 175 206 251 268 275 282 277 259 246 245 253 257 266 268 271
258 275 297 275 236 206 192 165 151 149 158 161 155 158 158 157 157 156 151 145 137 139 144 155 149 138 167 164 142 167 229 269 282 277 276 280 276 256 246 243 234 235 247 247
235 230 210 234 229 202 180 183 173 158 155 161 161 160 155 155 158 152 147 140 136 139 141 139 117 80 3 3 144 151 245 292 292 291 288 286 289 298 278 264 272 259 253 251
231 235 218 237 222 204 189 187 179 167 163 160 157 153 150 149 150 143 140 139 142 141 134 119 99 62 12 7 107 142 221 281 300 311 306 303 300 299 309 316 312 296 288 285
236 209 222 214 212 203 185 175 160 152 152 149 148 143 140 137 134 135 141 145 136 125 116 106 89 54 9 23 58 54 5 345 341 310 309 311 307 302 300 313 329 331 322 319
242 227 218 219 199 181 161 147 146 154 151 145 144 144 143 141 141 141 136 128 117 109 105 99 86 49 19 41 55 44 26 1 353 345 343 341 340 342 344 345 342 341 348 349
243 234 196 187 188 183 167 164 168 173 165 156 152 150 144 138 133 127 124 125 120 117 111 100 84 49 39 53 54 43 29 31 39 29 18 16 16 17 12 10 13 14 8 355
195 208 205 206 203 197 191 185 178 173 166 160 155 145 136 130 124 120 116 113 112 110 106 101 87 61 53 56 61 52 41 35 42 46 38 35 34 31 27 29 26 20 10 8
217 212 204 198 197 198 195 180 171 165 162 158 147 143 142 142 140 137 131 119 106 92 81 92 90 75 58 52 61 56 55 50 46 46 42 41 39 35 35 37 32 29 19 21
244 220 210 200 190 182 176 172 166 158 150 148 147 147 145 142 139 137 131 124 120 114 100 95 95 78 64 58 69 63 63 60 53 46 46 43 43 38 39 38 34 30 28 27
340 350 154 147 135 142 150 149 142 139 142 141 139 137 136 139 138 134 127 122 136 151 150 125 102 84 71 66 72 68 67 66 62 53 48 47 43 36 33 33 31 28 26 24
24 66 98 113 110 115 129 135 135 134 135 138 142 145 144 142 140 136 130 129 151 144 133 124 114 105 90 87 75 72 70 70 67 61 54 46 42 37 31 29 26 23 21 16
24 75 93 107 109 105 110 120 127 129 129 131 134 137 138 139 137 131 135 152 163 150 135 129 136 132 120 95 81 80 79 78 74 66 55 46 42 33 24 19 16 13 8 2
21 82 102 116 123 119 107 114 126 133 136 139 142 144 145 147 147 144 152 173 160 153 146 155 157 142 119 100 96 94 95 91 83 74 60 39 28 19 8 4 358 354 348 343
7 71 118 121 119 118 119 122 123 126 129 132 140 144 142 139 140 156 155 161 165 159 161 171 162 146 122 120 120 124 135 141 156 204 230 347 347 343 336 335 334 330 329 332
265 189 161 144 142 150 148 133 120 117 118 123 133 142 144 148 153 163 160 165 170 165 170 178 172 159 138 146 159 174 198 207 197 193 198 230 276 297 304 308 314 317 319 318
261 224 201 191 180 167 156 145 141 142 137 136 138 142 142 144 147 150 156 168 175 172 175 186 185 172 170 180 187 194 203 214 210 160 211 230 248 270 287 299 310 311 312 312
264 230 181 165 168 165 159 155 153 157 155 153 158 167 163 157 156 162 164 166 170 173 178 184 186 186 191 196 201 204 206 207 207 208 222 232 237 249 267 283 290 296 305 310
Height
1502 1498 1498 1499 1498 1500 1506 1511 1518 1511 1507 1500 1497 1496 1496 1497 1499 1501 1502 1503 1504 1505 1506 1507 1507 1508 1508 1507 1507 1506 1505 1504 1503 1501 1499 1497 1495 1493 1491 1488 1486 1483 1481 1478
1500 1495 1495 1497 1495 1496 1498 1499 1502 1501 1500 1491 1491 1492 1494 1495 1497 1498 1499 1500 1502 1503 1504 1505 1505 1506 1506 1506 1506 1505 1504 1503 1502 1501 1499 1497 1495 1493 1491 1489 1487 1484 1482 1479
1510 1500 1498 1504 1492 1492 1492 1489 1493 1498 1494 1488 1490 1491 1491 1492 1494 1495 1496 1498 1499 1500 1501 1502 1504 1504 1505 1505 1505 1504 1503 1502 1501 1500 1498 1497 1495 1493 1491 1489 1487 1485 1482 1480
1512 1506 1513 1498 1479 1480 1483 1482 1481 1482 1483 1484 1485 1487 1488 1490 1491 1493 1494 1496 1497 1498 1499 1501 1502 1503 1503 1503 1503 1503 1502 1501 1500 1499 1498 1496 1495 1493 1491 1489 1487 1485 1483 1481
1515 1515 1508 1490 1477 1476 1482 1482 1476 1478 1479 1481 1483 1486 1488 1488 1489 1490 1492 1494 1495 1496 1498 1499 1500 1501 1502 1502 1502 1502 1501 1500 1499 1498 1497 1496 1494 1493 1491 1489 1488 1486 1484 1482
1514 1512 1513 1491 1473 1471 1476 1484 1473 1474 1476 1479 1482 1490 1488 1486 1488 1489 1491 1492 1494 1495 1496 1497 1498 1499 1500 1500 1500 1500 1499 1499 1498 1497 1496 1495 1493 1492 1491 1489 1487 1486 1484 1482
1510 1511 1501 1479 1472 1473 1491 1486 1471 1471 1472 1475 1478 1480 1481 1484 1486 1488 1489 1491 1492 1493 1494 1496 1497 1498 1498 1498 1498 1498 1498 1497 1496 1496 1495 1494 1492 1491 1490 1488 1487 1485 1484 1482
1509 1510 1501 1470 1471 1476 1475 1468 1469 1470 1471 1473 1475 1477 1479 1482 1484 1486 1488 1489 1491 1492 1493 1494 1495 1496 1496 1496 1496 1496 1496 1495 1495 1494 1493 1492 1491 1490 1488 1487 1485 1484 1482 1481
1489 1486 1470 1466 1466 1466 1466 1467 1468 1469 1470 1472 1474 1476 1478 1480 1482 1484 1486 1488 1489 1490 1491 1492 1493 1494 1494 1494 1494 1494 1494 1493 1493 1492 1491 1490 1489 1488 1487 1485 1484 1482 1481 1479
1479 1472 1466 1464 1464 1464 1465 1466 1467 1468 1469 1470 1472 1474 1476 1479 1481 1482 1484 1486 1487 1488 1489 1490 1491 1491 1492 1492 1492 1492 1492 1491 1490 1489 1489 1488 1487 1485 1484 1483 1482 1480 1479 1477
1475 1468 1465 1464 1463 1463 1464 1464 1465 1466 1467 1469 1470 1472 1474 1476 1478 1480 1482 1483 1485 1486 1487 1488 1489 1489 1489 1489 1489 1489 1489 1488 1488 1487 1486 1485 1484 1483 1482 1481 1480 1478 1476 1475
1472 1464 1464 1461 1460 1461 1461 1462 1463 1464 1465 1467 1468 1470 1472 1474 1476 1478 1479 1481 1482 1484 1485 1485 1486 1487 1487 1487 1487 1486 1486 1485 1485 1484 1482 1481 1480 1479 1479 1478 1476 1475 1474 1472
1459 1457 1457 1457 1457 1457 1458 1459 1460 1461 1462 1464 1466 1468 1469 1471 1473 1475 1477 1479 1480 1481 1482 1483 1484 1484 1484 1484 1484 1483 1483 1482 1481 1480 1479 1478 1477 1475 1474 1474 1473 1472 1470 1469
1454 1453 1452 1452 1452 1453 1454 1455 1457 1458 1460 1462 1464 1465 1467 1469 1471 1473 1474 1476 1478 1479 1480 1481 1481 1481 1481 1481 1481 1481 1480 1479 1479 1477 1476 1475 1474 1473 1471 1469 1468 1467 1467 1465
1449 1448 1448 1448 1448 1449 1451 1452 1454 1455 1457 1459 1461 1463 1464 1466 1468 1470 1472 1474 1475 1476 1477 1478 1479 1479 1479 1479 1478 1478 1477 1476 1476 1475 1474 1472 1471 1470 1469 1467 1465 1464 1462 1461
1443 1443 1443 1443 1444 1445 1446 1448 1449 1451 1453 1455 1457 1459 1462 1464 1466 1468 1470 1471 1473 1474 1475 1476 1476 1477 1477 1477 1476 1476 1475 1474 1473 1472 1471 1470 1469 1467 1466 1465 1463 1461 1460 1458
1438 1438 1438 1439 1439 1440 1441 1443 1445 1447 1449 1452 1454 1456 1459 1461 1463 1466 1467 1469 1471 1472 1473 1474 1474 1475 1475 1475 1474 1474 1473 1472 1471 1470 1469 1467 1466 1465 1464 1463 1461 1459 1458 1457
1434 1434 1434 1434 1434 1436 1437 1439 1442 1444 1446 1449 1451 1454 1456 1458 1460 1463 1465 1467 1469 1470 1471 1472 1473 1473 1473 1473 1472 1472 1471 1470 1469 1468 1467 1466 1465 1464 1462 1461 1460 1458 1456 1455
1429 1429 1429 1430 1431 1432 1433 1435 1438 1440 1443 1446 1448 1451 1454 1456 1459 1461 1463 1465 1467 1468 1469 1470 1471 1471 1471 1471 1471 1470 1469 1469 1468 1467 1466 1465 1464 1463 1461 1460 1458 1457 1455 1453
1426 1426 1426 1427 1428 1429 1431 1432 1435 1438 1440 1443 1446 1449 1451 1454 1457 1459 1461 1463 1465 1466 1468 1468 1469 1469 1469 1469 1469 1469 1468 1467 1467 1466 1465 1464 1463 1462 1461 1459 1458 1456 1455 1453
1424 1424 1424 1425 1426 1428 1429 1431 1433 1436 1439 1441 1444 1446 1449 1452 1455 1457 1459 1462 1463 1465 1466 1467 1467 1468 1468 1468 1468 1468 1467 1467 1466 1465 1465 1464 1463 1461 1460 1459 1457 1456 1454 1452
1425 1425 1424 1425 1426 1428 1430 1431 1433 1435 1438 1441 1443 1446 1448 1450 1453 1456 1458 1461 1462 1463 1464 1465 1466 1466 1467 1467 1467 1467 1466 1466 1465 1464 1464 1463 1462 1460 1459 1458 1456 1454 1453 1451
1427 1426 1426 1426 1427 1428 1430 1432 1434 1435 1437 1440 1442 1445 1447 1449 1452 1454 1457 1459 1460 1462 1463 1464 1465 1465 1466 1466 1466 1466 1465 1465 1464 1464 1463 1462 1461 1459 1458 1456 1455 1453 1451 1449
1428 1427 1427 1427 1428 1429 1430 1432 1434 1436 1438 1440 1442 1444 1447 1449 1451 1454 1456 1457 1459 1460 1461 1463 1464 1464 1464 1465 1464 1464 1464 1463 1463 1462 1461 1460 1459 1458 1456 1454 1452 1450 1448 1446
1428 1427 1427 1427 1427 1428 1430 1431 1433 1435 1437 1439 1442 1444 1446 1448 1450 1452 1454 1456 1457 1458 1460 1461 1462 1463 1463 1463 1463 1462 1462 1461 1461 1460 1459 1458 1457 1455 1453 1452 1449 1447 1445 1442
1427 1426 1426 1426 1427 1428 1429 1430 1432 1434 1436 1438 1440 1443 1445 1447 1449 1451 1452 1454 1456 1457 1458 1459 1460 1461 1461 1461 1461 1460 1460 1459 1458 1457 1456 1455 1453 1452 1450 1448 1446 1443 1441 1438
1424 1424 1424 1424 1425 1426 1427 1429 1430 1432 1434 1436 1438 1441 1443 1445 1447 1449 1450 1452 1453 1455 1456 1457 1457 1458 1458 1458 1458 1457 1457 1456 1455 1454 1453 1451 1450 1448 1446 1444 1441 1439 1436 1433